カタログに戻る

STARLINK-35494

運用中通信VLEO
NORAD 65927·PAYLOAD·🇺🇸 United States

打ち上げ Oct 8, 2025 から Vandenberg Space Force Base

Loading…

次のパス (今後24時間)

TLE

最新Source: CelesTrak SupGP

元期: Sep 15, 2026, 03:30 UTC

1 65927C 25225T   26258.14631944  .00075397  00000+0  22269-2 0  2581
2 65927  53.1600   2.4022 0001149  81.8123 179.2021 15.34362833    15

AllMySatでSTARLINK-35494をリアルタイム追跡

Download on the App Store